| time (UTC) | temp C | wind direction | speed KPH | gust KPH | rain 1hr cm | rain 24hr cm | rain mn cm | humidity % | barometer mb |
| 20260509074611 | 7 | 174 | 9.7 | 0.0 | 0.00 | 0.00 | 0.00 | 77 | 981.1 |
| 20260509073131 | 7 | 170 | 9.7 | 0.0 | 0.00 | 0.00 | 0.00 | 77 | 981.1 |
| 20260509071612 | 6 | 174 | 9.7 | 0.0 | 0.00 | 0.00 | 0.00 | 77 | 981.1 |
| 20260509070142 | 6 | 169 | 8.0 | 0.0 | 0.00 | 0.00 | 0.00 | 77 | 981.1 |
| 20260509064611 | 7 | 168 | 9.7 | 0.0 | 0.00 | 0.00 | 0.00 | 53 | 981.5 |
| 20260509063128 | 7 | 170 | 11.3 | 0.0 | 0.00 | 0.00 | 0.00 | 56 | 981.2 |
| 20260509061612 | 7 | 169 | 12.9 | 0.0 | 0.00 | 0.00 | 0.00 | 56 | 981.2 |
| 20260509060158 | 7 | 164 | 12.9 | 0.0 | 0.00 | 0.00 | 0.00 | 56 | 981.2 |
| 20260509054611 | 7 | 159 | 11.3 | 0.0 | 0.00 | 0.00 | 0.00 | 50 | 982.5 |
| 20260509053126 | 7 | 156 | 11.3 | 0.0 | 0.00 | 0.00 | 0.00 | 56 | 981.9 |
| 20260509051609 | 7 | 154 | 11.3 | 0.0 | 0.00 | 0.00 | 0.00 | 56 | 981.9 |
| 20260509050143 | 7 | 154 | 11.3 | 0.0 | 0.00 | 0.00 | 0.00 | 56 | 981.9 |
| 20260509044610 | 7 | 152 | 11.3 | 0.0 | 0.00 | 0.00 | 0.00 | 51 | 982.9 |
| 20260509043127 | 7 | 157 | 11.3 | 0.0 | 0.00 | 0.00 | 0.00 | 53 | 981.6 |
| 20260509041610 | 8 | 158 | 11.3 | 0.0 | 0.00 | 0.00 | 0.00 | 53 | 981.7 |
| 20260509040148 | 8 | 158 | 12.9 | 0.0 | 0.00 | 0.00 | 0.00 | 53 | 981.7 |
| 20260509034610 | 8 | 158 | 11.3 | 0.0 | 0.00 | 0.00 | 0.00 | 49 | 982.6 |
| 20260509033125 | 8 | 166 | 9.7 | 0.0 | 0.00 | 0.00 | 0.00 | 48 | 983.2 |
| 20260509031610 | 8 | 167 | 11.3 | 0.0 | 0.00 | 0.00 | 0.00 | 48 | 983.2 |
| 20260509030143 | 9 | 164 | 11.3 | 0.0 | 0.00 | 0.00 | 0.00 | 48 | 983.2 |
| 20260509024609 | 9 | 159 | 9.7 | 0.0 | 0.00 | 0.00 | 0.00 | 37 | 983.3 |
| 20260509023127 | 10 | 159 | 9.7 | 0.0 | 0.00 | 0.00 | 0.00 | 41 | 983.4 |
| 20260509021610 | 10 | 170 | 9.7 | 0.0 | 0.00 | 0.00 | 0.00 | 41 | 983.4 |
| 20260509020139 | 10 | 173 | 8.0 | 0.0 | 0.00 | 0.00 | 0.00 | 41 | 983.4 |
| 20260509014608 | 10 | 178 | 9.7 | 0.0 | 0.00 | 0.00 | 0.00 | 39 | 983.4 |
| 20260509013123 | 11 | 188 | 6.4 | 0.0 | 0.00 | 0.00 | 0.00 | 39 | 983.4 |
| 20260509011609 | 11 | 198 | 4.8 | 0.0 | 0.00 | 0.00 | 0.00 | 39 | 983.4 |
| 20260509010137 | 12 | 228 | 3.2 | 0.0 | 0.00 | 0.00 | 0.00 | 39 | 983.4 |
| 20260509004607 | 12 | 252 | 3.2 | 0.0 | 0.00 | 0.00 | 0.00 | 36 | 983.0 |
| 20260509003126 | 12 | 252 | 6.4 | 0.0 | 0.00 | 0.00 | 0.00 | 33 | 984.3 |
| 20260509001608 | 13 | 263 | 4.8 | 0.0 | 0.00 | 0.00 | 0.00 | 33 | 984.3 |
| 20260509000151 | 13 | 267 | 4.8 | 0.0 | 0.00 | 0.00 | 0.00 | 33 | 984.3 |
| 20260508234610 | 13 | 265 | 8.0 | 0.0 | 0.00 | 0.00 | 0.00 | 26 | 983.6 |
| 20260508233130 | 14 | 263 | 11.3 | 0.0 | 0.00 | 0.00 | 0.00 | 25 | 984.2 |
| 20260508231612 | 15 | 261 | 9.7 | 0.0 | 0.00 | 0.00 | 0.00 | 25 | 984.2 |
| 20260508230135 | 15 | 270 | 11.3 | 0.0 | 0.00 | 0.00 | 0.00 | 25 | 984.2 |
| 20260508224611 | 15 | 272 | 12.9 | 0.0 | 0.00 | 0.00 | 0.00 | 25 | 984.3 |
| 20260508223130 | 15 | 277 | 14.5 | 0.0 | 0.00 | 0.00 | 0.00 | 23 | 985.2 |
| 20260508221612 | 15 | 276 | 16.1 | 0.0 | 0.00 | 0.00 | 0.00 | 23 | 985.2 |
| 20260508220137 | 15 | 272 | 16.1 | 0.0 | 0.00 | 0.00 | 0.00 | 23 | 985.2 |
| 20260508214612 | 15 | 271 | 17.7 | 0.0 | 0.00 | 0.00 | 0.00 | 23 | 985.7 |
| 20260508213129 | 15 | 266 | 17.7 | 0.0 | 0.00 | 0.00 | 0.00 | 24 | 985.1 |
| 20260508211612 | 16 | 255 | 16.1 | 0.0 | 0.00 | 0.00 | 0.00 | 24 | 985.2 |
| 20260508210141 | 16 | 254 | 16.1 | 0.0 | 0.00 | 0.00 | 0.00 | 24 | 985.2 |
| 20260508204612 | 16 | 252 | 17.7 | 0.0 | 0.00 | 0.00 | 0.00 | 26 | 985.4 |
| 20260508203130 | 16 | 250 | 17.7 | 0.0 | 0.00 | 0.00 | 0.00 | 23 | 985.1 |
| 20260508201612 | 16 | 249 | 16.1 | 0.0 | 0.00 | 0.00 | 0.00 | 23 | 985.1 |
| 20260508200137 | 16 | 250 | 16.1 | 0.0 | 0.00 | 0.00 | 0.00 | 23 | 985.1 |
| 20260508194612 | 16 | 250 | 14.5 | 0.0 | 0.00 | 0.00 | 0.00 | 21 | 985.3 |
| 20260508193126 | 16 | 248 | 16.1 | 0.0 | 0.00 | 0.00 | 0.00 | 21 | 985.3 |
| 20260508191611 | 16 | 255 | 16.1 | 0.0 | 0.00 | 0.00 | 0.00 | 21 | 985.3 |
| 20260508190135 | 16 | 256 | 14.5 | 0.0 | 0.00 | 0.00 | 0.00 | 21 | 985.3 |
| 20260508184611 | 16 | 254 | 16.1 | 0.0 | 0.00 | 0.00 | 0.00 | 24 | 985.8 |
| 20260508183131 | 16 | 253 | 16.1 | 0.0 | 0.00 | 0.00 | 0.00 | 25 | 985.3 |
| 20260508181611 | 16 | 255 | 16.1 | 0.0 | 0.00 | 0.00 | 0.00 | 25 | 985.3 |
| 20260508180143 | 16 | 252 | 16.1 | 0.0 | 0.00 | 0.00 | 0.00 | 25 | 985.3 |
| 20260508174612 | 16 | 249 | 14.5 | 0.0 | 0.00 | 0.00 | 0.00 | 35 | 986.4 |
| 20260508173130 | 15 | 251 | 16.1 | 0.0 | 0.00 | 0.00 | 0.00 | 35 | 986.4 |
| 20260508171611 | 15 | 239 | 14.5 | 0.0 | 0.00 | 0.00 | 0.00 | 35 | 986.4 |
| 20260508170137 | 15 | 242 | 16.1 | 0.0 | 0.00 | 0.00 | 0.00 | 35 | 986.4 |
| 20260508164611 | 15 | 248 | 16.1 | 0.0 | 0.00 | 0.00 | 0.00 | 35 | 986.7 |
| 20260508163130 | 15 | 246 | 16.1 | 0.0 | 0.00 | 0.00 | 0.00 | 35 | 986.9 |
| 20260508161611 | 13 | 237 | 12.9 | 0.0 | 0.00 | 0.00 | 0.00 | 35 | 986.9 |
| 20260508160142 | 13 | 235 | 12.9 | 0.0 | 0.00 | 0.00 | 0.00 | 35 | 986.9 |
| 20260508154612 | 13 | 226 | 11.3 | 0.0 | 0.00 | 0.00 | 0.00 | 47 | 987.9 |
| 20260508153132 | 12 | 206 | 11.3 | 0.0 | 0.00 | 0.00 | 0.00 | 53 | 986.8 |
| 20260508151612 | 12 | 195 | 9.7 | 0.0 | 0.00 | 0.00 | 0.00 | 53 | 986.8 |
| 20260508150142 | 12 | 193 | 11.3 | 0.0 | 0.00 | 0.00 | 0.00 | 53 | 986.8 |
| 20260508144612 | 11 | 188 | 9.7 | 0.0 | 0.00 | 0.00 | 0.00 | 65 | 987.0 |
| 20260508143129 | 11 | 189 | 9.7 | 0.0 | 0.00 | 0.00 | 0.00 | 59 | 987.1 |
| 20260508141612 | 10 | 184 | 9.7 | 0.0 | 0.00 | 0.00 | 0.00 | 59 | 987.1 |
| 20260508140150 | 10 | 178 | 9.7 | 0.0 | 0.00 | 0.00 | 0.00 | 61 | 986.9 |
| 20260508134612 | 9 | 175 | 8.0 | 0.0 | 0.00 | 0.00 | 0.00 | 69 | 986.8 |
| 20260508133126 | 8 | 178 | 9.7 | 0.0 | 0.00 | 0.00 | 0.00 | 69 | 986.8 |
| 20260508131612 | 7 | 178 | 9.7 | 0.0 | 0.00 | 0.00 | 0.00 | 69 | 986.8 |
| 20260508130146 | 7 | 174 | 9.7 | 0.0 | 0.00 | 0.00 | 0.00 | 69 | 986.8 |
| 20260508124612 | 6 | 172 | 9.7 | 0.0 | 0.00 | 0.00 | 0.00 | 83 | 986.2 |
| 20260508123130 | 5 | 180 | 8.0 | 0.0 | 0.00 | 0.00 | 0.00 | 83 | 986.8 |
| 20260508121611 | 5 | 174 | 6.4 | 0.0 | 0.00 | 0.00 | 0.00 | 83 | 986.8 |
| 20260508120202 | 3 | 159 | 4.8 | 0.0 | 0.00 | 0.00 | 0.00 | 83 | 986.8 |
| 20260508114611 | 2 | 156 | 3.2 | 0.0 | 0.00 | 0.00 | 0.00 | 86 | 986.3 |
| 20260508113133 | 2 | 146 | 4.8 | 0.0 | 0.00 | 0.00 | 0.00 | 87 | 986.9 |
| 20260508111611 | 2 | 137 | 4.8 | 0.0 | 0.00 | 0.00 | 0.00 | 87 | 987.0 |
| 20260508110137 | 2 | 141 | 6.4 | 0.0 | 0.00 | 0.00 | 0.00 | 87 | 987.0 |
| 20260508104613 | 1 | 135 | 8.0 | 0.0 | 0.00 | 0.00 | 0.00 | 81 | 986.0 |
| 20260508103131 | 2 | 131 | 8.0 | 0.0 | 0.00 | 0.00 | 0.00 | 81 | 987.0 |
| 20260508101614 | 2 | 135 | 6.4 | 0.0 | 0.00 | 0.00 | 0.00 | 81 | 987.0 |
| 20260508100138 | 2 | 129 | 6.4 | 0.0 | 0.00 | 0.00 | 0.00 | 81 | 987.0 |
| 20260508094613 | 2 | 129 | 6.4 | 0.0 | 0.00 | 0.00 | 0.00 | 75 | 986.4 |
| 20260508093127 | 2 | 127 | 6.4 | 0.0 | 0.00 | 0.00 | 0.00 | 77 | 987.1 |
| 20260508091614 | 3 | 124 | 6.4 | 0.0 | 0.00 | 0.00 | 0.00 | 77 | 987.1 |
| 20260508090142 | 3 | 125 | 6.4 | 0.0 | 0.00 | 0.00 | 0.00 | 77 | 987.1 |
| 20260508084613 | 3 | 122 | 6.4 | 0.0 | 0.00 | 0.00 | 0.00 | 78 | 986.7 |
| 20260508083131 | 3 | 115 | 4.8 | 0.0 | 0.00 | 0.00 | 0.00 | 80 | 986.4 |
| 20260508081612 | 3 | 160 | 6.4 | 0.0 | 0.00 | 0.00 | 0.00 | 80 | 986.4 |
| 20260508080145 | 3 | 157 | 6.4 | 0.0 | 0.00 | 0.00 | 0.00 | 80 | 986.4 |